Weather History for Havre, MT

Change the Weather History Date:

Sunday, October 7, 2012

  Actual Average Record
Temperature  
Mean Temperature 51 °F 48 °F  
Max Temperature 67 °F 63 °F 90 °F (1980)
Min Temperature 34 °F 34 °F 9 °F (2000)
Degree Days  
Heating Degree Days 14 17  
Month to date heating degree days 134 110  
Since 1 July heating degree days 348 467  
Cooling Degree Days 0 0  
Month to date cooling degree days 0 0  
Year to date cooling degree days 507 386  
Growing Degree Days 1 (Base 50)    
Moisture  
Dew Point 35 °F    
Average Humidity 60    
Maximum Humidity 92    
Minimum Humidity 28    
Precipitation  
Precipitation 0.00 in 0.03 in 0.55 in (1959)
Month to date precipitation 0.81 0.18  
Year to date precipitation 11.14 9.97  
Snow  
Snow 0.00 in 0.10 in 4.20 in (1959)
Month to date snowfall 0.0 0.3  
Since 1 July snowfall 0.0 0.6  
Since 1 September snowfall 0.0 0.6  
Snow Depth 0.00 in    
Sea Level Pressure  
Sea Level Pressure 29.95 in    
Wind  
Wind Speed 12 mph (WSW)    
Max Wind Speed 26 mph    
Max Gust Speed 30 mph    
Visibility 10 miles    
Events      
T = Trace of Precipitation, MM = Missing Value Source: NWS Daily Summary

Daily Weather History Graph

Daily Weather History Graph

Search for Another Location

Airport:

Trip Planner

Search our weather history database for the weather conditions in past years. The results will help you decide how hot, cold, wet, or windy it might be!

Date:

Astronomy

Oct. 07, 2012 Rise Set
Actual Time 7:28 AM MDT 6:44 PM MDT
Civil Twilight 6:56 AM MDT 7:15 PM MDT
Nautical Twilight 6:20 AM MDT 7:52 PM MDT
Astronomical Twilight 5:43 AM MDT 8:28 PM MDT
Moon 11:40 PM MDT (10/7) 2:27 PM MDT (10/7)
Length of Visible Light 12h 19m
Length of Day
11h 16m
Waning Gibbous, 55% of the Moon is Illuminated
Oct 7
Waning Gibbous
Oct 8
Last Quarter
Oct 15
New
Oct 21
First Quarter
Oct 29
Full

Hourly Weather History & Observations

Time (MDT) Temp. Windchill Dew Point Humidity Pressure Visibility Wind Dir Wind Speed Gust Speed Precip Events Conditions
12:53 AM 37.4 °F 30.3 °F 33.8 °F 87% 30.10 in 10.0 mi WSW 10.4 mph - N/A   Clear
1:53 AM 37.0 °F 30.4 °F 35.1 °F 93% 30.14 in 10.0 mi SW 9.2 mph - N/A   Clear
2:53 AM 35.1 °F 29.3 °F 33.1 °F 92% 30.12 in 10.0 mi WSW 6.9 mph - N/A   Clear
3:53 AM 35.1 °F 26.9 °F 33.1 °F 92% 30.10 in 10.0 mi SW 11.5 mph - N/A   Clear
4:53 AM 35.1 °F 26.9 °F 33.1 °F 92% 30.09 in 10.0 mi WSW 11.5 mph - N/A   Clear
5:53 AM 36.0 °F 28.5 °F 33.1 °F 89% 30.06 in 10.0 mi WSW 10.4 mph - N/A   Clear
6:53 AM 36.0 °F 26.7 °F 33.1 °F 89% 30.04 in 10.0 mi SW 15.0 mph - N/A   Clear
7:53 AM 37.0 °F 27.7 °F 34.0 °F 89% 30.04 in 10.0 mi SW 16.1 mph - N/A   Clear
8:53 AM 41.0 °F 33.5 °F 35.1 °F 79% 30.02 in 10.0 mi SW 13.8 mph - N/A   Clear
9:53 AM 45.0 °F 37.6 °F 35.1 °F 68% 30.01 in 10.0 mi SW 17.3 mph - N/A   Clear
10:53 AM 48.2 °F - 33.8 °F 58% 29.95 in 10.0 mi SW 18.4 mph 27.6 mph N/A   Clear
11:53 AM 54.0 °F - 35.1 °F 49% 29.96 in 10.0 mi SW 19.6 mph - N/A   Clear
12:53 PM 59.0 °F - 33.1 °F 38% 29.92 in 10.0 mi SW 23.0 mph - N/A   Clear
1:53 PM 61.0 °F - 33.1 °F 35% 29.89 in 10.0 mi SW 20.7 mph - N/A   Clear
2:53 PM 66.9 °F - 32.0 °F 27% 29.86 in 10.0 mi WNW 12.7 mph 20.7 mph N/A   Clear
3:53 PM 64.9 °F - 35.1 °F 33% 29.86 in 10.0 mi WNW 15.0 mph - N/A   Clear
4:53 PM 64.9 °F - 36.0 °F 34% 29.83 in 10.0 mi West 12.7 mph - N/A   Scattered Clouds
5:53 PM 63.0 °F - 36.0 °F 37% 29.83 in 10.0 mi West 10.4 mph - N/A   Partly Cloudy
6:53 PM 61.0 °F - 37.0 °F 41% 29.83 in 10.0 mi West 10.4 mph - N/A   Overcast
7:53 PM 55.9 °F - 37.9 °F 51% 29.86 in 10.0 mi WNW 8.1 mph - N/A   Overcast
8:53 PM 59.0 °F - 36.0 °F 42% 29.86 in 10.0 mi NW 10.4 mph - N/A   Mostly Cloudy
9:53 PM 52.0 °F - 37.0 °F 57% 29.87 in 10.0 mi WNW 5.8 mph - N/A   Partly Cloudy
10:53 PM 48.9 °F - 37.9 °F 66% 29.87 in 10.0 mi NW 6.9 mph - N/A   Clear
11:53 PM 48.0 °F - 37.9 °F 68% 29.87 in 10.0 mi SW 6.9 mph - N/A   Clear